Location: Poughquag
(41.6090°N, 73.6820°W)
Time: 08:23:24
(UTC-05:00)

DIWATA 2B (PO-101) - Pass Details

Date: 17 November 2025
Orbit: 563 x 574 km, 98.1° (Epoch: 07 December)

Event Time Altitude Azimuth Distance (km) Brightness Sun altitude
Rises 05:17:31 0° 171° (S) 2,760 ? -16.6°
Reaches altitude 10° 05:19:39 10° 174° (S) 1,865 ? -16.2°
Maximum altitude 05:23:41 70° 257° (WSW) 608 ? -15.5°
Drops below altitude 10° 05:27:44 10° 342° (NNW) 1,874 ? -14.7°
Enters shadow 05:28:57 - 344° (NNW) 2,380 ? -14.5°
